Location: Castel Gandolfo
(41.7500°N, 12.6500°E)
Time: 21:07:23
(UTC+00:00)

Daily predictions for brighter satellites

Satellite Brightness Start Highest point End
(mag) Time Altitude Azimuth Time Altitude Azimuth Time Altitude Azimuth
Feng Yun 1-1 Rocket 4.4 16:06:57 10° SSE 16:12:25 56° ENE 16:17:48 10° N
Cosmos 1725 Rocket 4.2 16:08:37 10° N 16:14:58 84° W 16:21:16 10° S
CZ-4B R/B 4.2 16:14:02 10° NNW 16:16:18 17° WNW 16:18:35 10° WSW
Cosmos 2084 3.6 16:15:07 10° NNW 16:19:20 53° NE 16:23:27 10° SE
USA 229 DEB 3.8 16:13:14 10° SSW 16:19:37 60° ESE 16:26:18 10° NE
USA 229 3.8 16:13:21 10° SSW 16:19:43 60° ESE 16:26:23 10° NE
Cosmos 1607 4.2 16:15:55 10° NNW 16:21:54 47° NE 16:27:56 10° ESE
BREEZE-M DEB (TANK) 4.1 16:12:03 10° W 16:24:21 50° NNW 16:27:59 10° NE
Cosmos 1656 4.1 16:19:40 10° S 16:24:50 41° ESE 16:29:57 10° NE
Cosmos 1825 3.2 16:21:21 10° NNW 16:25:02 50° W 16:28:42 10° S
NOSS 3-1 (A) 4.0 16:20:18 10° S 16:25:09 34° ESE 16:30:33 10° NE
NOSS 3-1 (C) 3.4 16:20:03 10° SSW 16:25:19 57° ESE 16:31:20 10° NE
COSMO-SKYMED 1 3.8 16:23:42 10° NE 16:27:05 22° E 16:30:27 10° SE
Cosmos 1633 4.0 16:25:29 10° NNE 16:28:05 18° ENE 16:30:39 10° ESE
Sich 1 3.9 16:25:48 10° NNE 16:29:35 29° ENE 16:33:23 10° SE
PSLV R/B 4.5 16:25:27 10° N 16:29:39 64° WNW 16:33:48 10° SSW
Envisat 3.5 16:25:59 10° SE 16:30:34 36° ENE 16:35:11 10° N
ALOS 4.4 16:28:34 10° SSW 16:32:42 31° W 16:36:52 10° NNW
TELKOM 3 3.8 16:32:02 10° NW 16:33:57 27° NNE 16:35:15 15° ENE
Cosmos 1356 Rocket 3.7 16:33:45 10° SSE 16:37:41 45° E 16:41:42 10° NNE
SeaSat 1 2.7 16:35:19 10° SE 16:40:01 47° ENE 16:44:45 10° NNW
SMAP 3.1 16:35:30 10° SSE 16:40:09 90° SW 16:44:50 10° NNW
PSLV R/B 2.5 16:37:40 10° W 16:40:12 77° S 16:42:04 16° E
Cosmos 2219 3.2 16:38:29 10° NNW 16:44:08 88° ENE 16:49:45 10° SSE
Lacrosse 4 Rocket 2.0 16:43:11 10° S 16:46:56 36° ESE 16:49:57 14° NE
Cosmos 1869 3.2 16:44:53 10° S 16:48:50 78° E 16:52:47 10° N
YAOGAN 6 3.4 16:46:43 10° SE 16:49:44 27° ENE 16:52:44 10° NNE
Cosmos 2221 3.7 16:45:39 10° SSW 16:49:47 46° WNW 16:53:59 10° N
CSL-04 Rocket 4.3 16:47:03 10° SE 16:51:41 31° ENE 16:56:18 10° N
YAOGAN 1 3.5 16:49:27 10° SE 16:53:02 26° ENE 16:56:37 10° NNE
Cosmos 1980 Rocket 3.3 16:53:47 10° SSE 16:58:12 24° E 17:00:32 18° ENE
CORIOLIS 4.4 16:53:12 10° S 16:58:35 76° WSW 17:04:02 10° NNW
CZ-4 R/B 1.9 16:55:14 10° SE 16:59:04 37° ENE 17:02:51 10° N
Geosat 4.1 16:55:10 10° NNE 17:00:14 81° WNW 17:05:15 10° SSW
ERBS 2.1 16:57:37 10° SW 17:00:56 83° SE 17:02:51 23° NE
Cosmos 2034 Rocket 4.4 16:55:45 10° N 17:01:44 41° ENE 17:07:43 10° SE
Cosmos 1238 Rocket 4.3 16:59:05 10° NNW 17:03:07 40° W 17:06:30 10° SSW
Cosmos 2227 Rocket 2.1 16:58:02 10° NNW 17:03:44 78° ENE 17:09:23 10° SSE
Cosmos 2297 Rocket 2.1 16:58:09 10° NNW 17:03:50 84° ENE 17:09:29 10° SSE
NOSS 2-3 (C) 4.1 17:00:55 10° S 17:04:56 41° ESE 17:07:31 22° ENE
Cosmos 1680 Rocket 3.8 17:02:01 10° S 17:06:54 42° ESE 17:10:57 15° NE
Okean-O 2.8 17:04:15 10° S 17:08:40 75° WSW 17:13:07 10° NNW
FengYun 1-2 T 4.2 17:04:33 10° SSE 17:10:01 63° ENE 17:15:27 10° N
Ariane Rocket 4.2 17:14:23 22° NE 17:14:23 22° NE 17:17:35 10° NNE
SKYMED 2 3.4 17:11:04 10° NNE 17:15:26 74° ESE 17:19:45 10° S
H-2A R/B 4.4 17:12:22 10° SSW 17:15:57 36° W 17:19:32 10° NNW
Cosmos 2369 3.6 17:13:25 10° SSW 17:19:02 72° ESE 17:24:08 13° NNE
Tsikada Rocket 4.3 17:16:14 10° SSE 17:22:10 44° E 17:28:10 10° NNE
Cosmos 2263 Rocket 3.9 17:23:03 10° N 17:25:09 15° NNE 17:25:09 15° NNE
TRAILBLAZER 4.5 17:26:10 10° NNW 17:30:48 87° ENE 17:34:09 18° SSE
Cosmos 923 Rocket 4.0 17:26:17 10° SSW 17:31:31 86° WNW 17:36:20 12° NNE
Cosmos 2082 3.6 17:25:58 10° NNW 17:31:36 81° ENE 17:37:13 10° SSE
Cosmos 2360 4.3 17:26:11 10° S 17:31:42 55° ESE 17:34:33 28° NE
Cosmos 1697 Rocket 2.6 17:31:57 10° SSW 17:37:37 87° WNW 17:42:03 17° NNE
Cosmos 2278 3.6 17:33:06 10° SSW 17:38:45 77° ESE 17:42:21 24° NNE
Cosmos 1624 Rocket 4.5 17:34:17 10° N 17:39:08 39° ENE 17:39:08 39° ENE
Cosmos 2056 Rocket 4.1 17:34:44 10° N 17:38:46 35° NE 17:38:46 35° NE
ATLAS 5 CENTAUR R/B 3.0 17:36:25 10° NW 17:42:17 58° WSW 17:48:54 10° SSE
Cosmos 1862 3.7 17:39:25 10° NNW 17:43:21 64° W 17:47:18 10° S
Cosmos 1464 Rocket 4.5 17:44:23 10° NNW 17:50:26 60° W 17:56:26 10° S
Cosmos 1633 Rocket 3.8 17:50:27 10° NNW 17:54:46 54° W 17:59:03 10° S
USA 215 3.7 17:56:07 39° NE 17:57:13 42° NNE 18:03:17 10° NW
COSMO-SKYMED 1 4.2 17:59:23 10° N 18:03:18 33° WNW 18:07:11 10° SW
DMSP B5D1-3 4.5 18:03:21 32° NNE 18:05:50 86° WNW 18:10:59 10° SSW
Cosmos 1515 Rocket 3.9 18:03:27 10° S 18:07:01 57° SSW 18:07:01 57° SSW
NOSS 2-3 (E) 4.3 18:03:42 10° SW 18:07:57 52° NW 18:08:54 44° N
Cosmos 1328 Rocket 4.5 18:04:08 10° SSW 18:08:24 47° W 18:11:27 18° N
NOAA 11 4.1 18:04:26 10° SSE 18:09:51 83° WSW 18:15:19 10° NNW
Cosmos 1151 Rocket 3.9 18:06:58 10° SSW 18:11:10 48° WNW 18:13:22 25° NNW
NOSS 3-1 (A) 4.4 18:10:35 10° WSW 18:15:50 41° NW 18:18:59 24° N
NOSS 2-3 (D) 4.5 18:13:15 10° WSW 18:17:27 47° NW 18:17:54 45° NNW
Cosmos 1932 4.4 18:15:05 10° NNW 18:21:40 87° NE 18:22:24 72° SE
Lacrosse 4 Rocket 3.5 18:22:33 10° WSW 18:25:42 21° NW 18:26:18 21° NW
Cosmos 1371 Rocket 4.4 18:24:34 10° NNW 18:29:08 60° WNW 18:29:08 60° WNW
CZ-4 R/B 4.2 18:31:17 10° SW 18:34:11 18° W 18:37:04 10° NW
Cosmos 1980 Rocket 2.9 18:36:21 10° SW 18:41:49 49° WNW 18:42:22 48° NW
Cosmos 2263 Rocket 4.4 19:05:37 10° NNW 19:06:52 17° NNW 19:06:52 17° NNW
